Temperature
20 20 19 20 21 21 22 22 21 20 20 19 19 19 18 18 18 18 18 18 17 17 17 17 17 17 17 17 17 17 17 16 16 16 16 16 16 17 16 16 16 16 16
19 19 19 20 20 21 21 22 21 21 20 20 20 19 19 18 18 18 18 18 18 17 17 17 17 17 17 17 16 16 16 16 16 16 16 17 17 16 16 16 16 16 16
18 18 18 19 19 20 21 21 21 21 20 20 20 20 19 19 19 18 18 18 18 18 17 17 17 17 17 17 17 16 16 16 16 16 16 17 17 17 17 16 16 16 16
17 17 17 18 18 19 20 21 21 20 20 20 20 20 19 18 18 18 18 18 18 18 17 17 17 17 17 17 16 16 16 16 16 16 16 16 17 17 17 16 16 16 16
16 16 16 16 17 18 19 20 20 20 19 19 19 19 18 18 17 17 17 17 17 17 17 17 17 17 17 16 16 16 16 16 16 15 15 15 15 16 16 16 16 16 16
16 16 15 16 16 17 18 18 19 19 18 18 18 18 17 17 16 16 17 17 17 17 17 17 17 16 16 16 16 16 16 16 15 15 15 15 15 15 15 15 16 16 16
16 15 15 15 15 16 16 17 17 17 17 17 16 17 16 16 16 16 16 16 16 17 16 16 16 16 16 16 16 16 16 16 15 15 15 15 15 15 15 15 15 15 16
15 15 14 14 15 15 15 15 16 16 15 15 15 15 16 15 15 15 16 16 16 16 16 16 16 16 16 16 16 15 15 15 15 15 15 15 14 14 14 14 14 14 15
14 14 14 14 14 14 14 14 15 14 14 14 14 14 14 15 15 15 16 16 16 16 16 16 16 16 16 16 15 15 15 15 15 15 15 14 14 14 14 14 14 14 14
13 13 13 13 13 14 14 14 14 14 14 14 14 14 14 15 15 15 16 16 16 16 16 16 15 15 15 15 15 15 15 15 15 15 14 14 14 14 14 14 14 14 14
12 12 13 13 13 13 13 14 14 14 14 14 15 15 15 15 15 15 15 16 16 16 15 15 15 15 15 15 15 14 15 14 14 14 14 14 14 14 14 14 14 14 13
11 12 12 13 13 13 13 14 14 14 14 15 15 15 15 15 15 15 15 16 16 16 15 15 15 15 15 15 15 14 14 14 14 14 14 14 14 14 14 14 14 13 13
11 11 12 12 13 13 13 14 14 14 15 15 15 15 15 15 15 15 15 15 15 15 15 15 15 15 15 15 15 14 14 14 14 14 14 14 13 13 13 13 13 13 13
11 11 11 12 12 12 13 13 14 14 14 15 15 15 15 15 15 15 15 16 15 15 15 15 15 15 15 15 14 14 14 14 14 14 14 14 13 13 13 13 13 13 13
11 11 11 11 12 12 12 12 13 13 14 14 14 15 15 15 15 15 15 15 15 15 15 15 15 15 15 15 14 14 14 14 14 14 14 14 14 14 14 13 13 13 13
12 12 12 11 12 11 12 12 12 13 13 13 14 14 14 14 14 14 15 15 15 15 15 15 15 15 14 15 15 15 14 14 14 14 14 14 14 14 14 14 14 13 13
12 12 12 12 12 12 11 12 12 12 12 12 13 13 13 13 14 14 14 14 14 14 14 14 14 14 14 14 14 14 14 14 14 14 14 14 14 14 13 13 14 13 13
13 13 13 12 12 12 12 12 11 11 11 12 12 12 12 12 13 13 13 13 13 13 13 13 13 13 14 14 14 14 14 14 14 14 14 14 14 13 14 13 13 13 13
13 13 13 13 13 12 12 12 12 11 11 11 11 11 11 12 12 12 12 12 12 12 12 12 13 13 13 13 13 13 13 13 13 13 13 13 14 14 14 14 13 13 13
13 13 13 13 13 13 13 13 12 12 11 11 11 11 11 12 12 12 12 12 12 12 12 12 12 12 12 12 13 13 13 13 13 13 13 13 13 14 14 14 13 13 13
14 14 14 14 13 13 13 13 12 12 11 11 11 11 11 11 11 11 11 11 11 11 11 11 11 12 12 12 12 12 12 12 12 12 12 13 13 13 14 13 13 13 13
14 14 14 14 14 13 13 13 12 12 11 11 11 11 11 11 11 11 11 11 11 11 11 11 11 11 11 12 12 12 12 12 12 12 12 12 13 13 13 13 13 13 13
14 15 14 14 14 14 13 13 12 12 12 11 11 11 11 11 11 11 11 11 11 11 11 11 10 10 11 11 11 11 11 11 11 11 12 12 12 12 12 13 13 13 13
14 15 15 15 14 14 14 13 13 12 12 12 11 11 11 11 11 11 11 10 10 10 10 10 10 10 10 10 10 10 10 11 11 11 11 11 11 11 12 12 12 12 12
14 15 15 15 15 15 14 14 13 13 12 12 12 11 11 11 10 10 10 10 10 10 10 10 10 10 10 10 10 10 10 10 10 10 10 10 11 11 11 11 11 11 11
15 15 15 15 15 15 15 14 14 13 13 12 12 11 11 11 10 10 10 10 10 10 10 10 10 10 10 10 10 10 10 10 10 10 10 10 10 10 10 10 10 10 10
Wind_Speed
11 9 9 10 12 14 17 17 17 17 14 12 12 11 10 9 8 8 10 12 12 11 9 7 7 7 8 8 8 7 7 6 6 5 6 6 7 7 5 5 4 4 2
14 13 11 9 10 13 16 18 19 17 16 12 12 10 10 8 8 7 9 11 12 12 10 9 8 8 8 9 10 9 7 7 7 7 6 6 7 7 8 7 6 6 5
16 16 14 12 10 11 14 15 17 17 16 13 9 8 7 5 5 6 6 9 11 11 11 10 9 9 9 9 11 11 11 8 8 9 7 6 6 4 6 9 8 7 6
15 15 15 13 11 9 9 12 13 15 14 13 11 10 6 4 3 3 4 6 8 9 10 10 9 9 9 9 10 12 10 10 9 9 9 9 5 5 4 6 8 9 9
15 15 14 13 11 9 6 4 7 10 12 12 12 10 6 4 2 1 2 3 5 7 8 8 8 8 8 9 9 10 11 10 10 10 9 10 7 9 7 5 5 6 8
15 14 13 11 9 8 5 3 6 9 11 12 13 13 10 7 3 0 1 2 3 4 7 7 7 7 7 7 8 9 10 10 11 10 10 9 9 10 9 8 7 6 6
14 13 12 10 9 8 7 7 9 10 11 12 12 13 11 8 3 1 2 3 4 4 6 6 6 6 6 6 6 8 8 10 11 11 10 10 11 9 9 9 9 7 6
13 12 11 8 7 7 7 9 10 11 10 10 10 10 9 5 3 1 3 5 4 4 6 6 5 5 5 5 5 6 7 8 9 10 11 9 9 9 9 9 8 7 7
13 11 10 8 7 8 9 9 11 11 11 10 9 8 6 4 3 4 6 5 5 4 5 6 5 5 5 5 5 5 6 6 7 8 9 9 8 8 9 9 8 8 7
13 11 9 8 8 8 8 9 9 9 8 7 5 4 3 4 4 5 7 6 5 5 5 6 6 6 5 5 4 4 4 6 6 6 8 8 8 8 8 8 8 8 8
13 11 9 9 8 8 8 8 7 6 4 3 3 3 3 4 4 5 6 6 5 6 6 5 5 5 5 5 4 4 4 5 5 6 7 8 8 8 8 8 8 9 9
14 12 11 11 10 10 9 7 6 4 2 1 1 2 3 4 5 6 6 6 6 5 5 6 5 4 4 4 4 4 4 4 5 5 6 7 6 8 8 8 9 9 10
15 15 14 13 12 11 10 9 8 6 4 2 2 2 2 3 3 3 3 3 5 5 5 5 5 5 5 5 5 5 5 5 5 5 5 5 6 7 7 8 8 8 9
15 15 14 13 12 11 11 10 9 7 5 5 4 4 3 3 2 2 1 2 2 3 5 5 5 6 6 6 6 6 6 5 5 5 5 5 5 6 5 6 7 7 8
16 15 15 13 13 12 12 11 11 10 9 8 7 7 6 5 4 3 1 0 1 2 4 4 5 6 6 6 7 7 7 7 6 6 6 5 3 5 5 5 5 5 5
14 14 14 14 13 13 12 12 12 11 10 10 10 9 8 7 5 4 3 1 0 1 2 3 4 5 4 2 4 8 8 8 7 7 6 5 6 7 7 6 6 6 5
12 12 12 12 12 12 12 12 12 11 11 11 11 10 9 8 7 6 5 4 3 2 1 1 1 2 2 5 5 9 9 9 8 7 6 5 4 5 6 6 8 7 5
11 11 11 11 11 11 11 11 11 11 12 12 12 11 10 10 9 8 8 7 6 6 5 5 4 4 7 9 7 6 9 8 7 7 7 6 7 5 4 4 4 3 2
9 9 9 9 10 10 10 10 11 12 12 12 12 11 11 10 10 10 9 8 7 7 7 7 7 7 8 13 11 8 5 5 5 5 5 6 6 4 2 6 5 4 2
8 8 8 9 9 9 8 9 10 11 11 11 11 10 10 10 10 10 9 8 7 7 7 7 8 8 9 13 14 12 3 3 2 3 3 0 3 3 3 6 5 5 2
8 8 8 7 8 8 8 9 10 10 9 8 9 9 9 9 9 8 8 8 7 7 7 7 7 8 9 11 14 14 6 4 2 1 1 0 2 3 4 7 5 2 3
8 8 7 7 6 6 7 7 7 6 6 6 7 8 8 8 7 8 8 8 7 7 7 7 7 7 7 9 11 12 10 9 3 2 2 2 3 2 1 2 2 1 2
9 8 8 7 6 5 5 6 5 4 4 5 5 6 6 7 7 8 8 7 7 7 7 7 7 7 7 7 8 8 8 8 5 4 5 5 3 1 2 5 2 2 1
9 9 8 7 7 6 4 4 3 2 3 4 5 5 6 6 7 6 6 7 7 7 7 7 7 7 7 8 9 7 6 5 4 4 4 4 4 4 5 3 3 3 3
9 8 8 8 8 6 5 3 2 2 3 4 4 5 6 5 5 6 5 6 7 7 6 6 6 7 7 9 11 8 7 6 5 4 4 4 4 4 5 5 5 4 3
9 9 8 8 7 6 5 3 1 2 2 4 4 4 5 5 5 5 6 5 5 7 9 10 9 6 8 9 10 12 12 10 8 6 7 7 6 6 6 5 5 5 5
Wind_Direction
343 334 314 290 267 249 235 224 215 207 200 195 196 193 196 199 203 208 211 213 218 220 222 221 216 209 212 213 215 211 208 215 214 218 223 224 229 234 218 229 232 217 195
348 346 333 311 277 255 243 231 218 208 200 194 194 193 191 197 198 204 213 218 223 224 227 226 224 219 220 219 218 215 216 213 212 223 232 235 220 224 226 222 232 234 202
346 344 340 331 309 273 251 238 224 209 197 185 178 168 161 161 175 201 214 222 227 228 228 230 226 225 221 221 218 217 220 219 219 229 229 237 238 215 208 219 222 229 224
346 342 341 339 331 308 270 244 223 207 186 171 166 163 166 162 178 189 208 220 225 229 228 230 227 225 224 224 222 222 225 223 221 222 231 241 255 239 217 210 225 226 225
346 343 343 342 341 335 313 244 203 178 164 160 155 139 120 103 69 47 230 229 225 227 228 228 227 228 227 228 226 224 225 225 226 222 218 224 233 245 249 237 218 221 227
348 346 348 351 356 4 21 82 129 134 141 141 137 129 123 112 101 358 248 231 221 221 224 224 224 226 227 228 228 228 227 232 233 231 227 223 223 226 230 235 237 240 233
350 350 352 357 8 21 41 80 105 114 125 129 129 125 121 119 130 200 248 241 227 218 211 211 220 221 225 228 227 230 231 232 236 237 236 237 238 240 234 235 239 242 241
354 353 356 6 16 30 56 80 93 99 107 116 118 116 118 125 136 206 242 236 228 215 199 199 207 208 211 216 219 233 232 237 236 241 243 245 246 243 237 238 236 237 240
355 359 5 16 29 44 61 81 93 97 101 103 103 107 123 143 170 212 230 230 218 202 194 189 188 188 192 205 209 225 228 235 238 241 244 244 246 247 244 239 233 233 238
359 5 11 22 38 55 64 69 83 93 98 102 114 124 153 188 205 223 225 215 205 192 190 191 184 179 180 189 200 218 224 231 234 239 243 241 240 241 239 237 233 231 238
7 10 19 25 37 49 54 57 61 70 84 98 114 138 177 207 216 220 216 203 191 188 184 186 190 180 180 181 188 214 210 226 230 232 239 245 243 239 236 233 232 228 228
16 21 30 31 37 36 31 28 25 29 33 71 154 171 186 205 208 206 202 193 186 186 187 179 190 181 186 193 202 209 217 229 240 240 243 248 247 246 242 235 231 230 227
22 27 30 31 32 29 21 11 7 7 11 39 115 133 148 163 172 171 174 187 185 185 193 197 203 198 204 209 216 222 226 231 242 248 251 255 253 254 249 244 241 236 232
28 29 31 31 30 29 28 25 25 25 38 58 68 69 68 67 80 92 129 174 196 204 211 214 222 220 220 226 228 231 236 239 240 244 249 255 259 263 266 259 255 247 240
31 31 33 33 32 33 36 36 35 36 46 56 55 51 53 51 49 54 52 131 237 244 241 237 238 235 236 238 242 240 240 240 238 238 239 244 290 330 301 293 288 272 254
32 34 37 36 34 35 37 41 42 43 49 53 50 47 50 49 46 46 41 45 50 251 243 242 243 245 250 349 298 268 247 242 237 236 237 224 224 226 232 261 287 298 287
30 34 36 36 35 36 36 41 44 48 52 54 53 50 53 54 52 55 57 53 55 55 41 351 293 276 0 358 291 262 261 248 245 243 237 227 238 242 244 212 221 236 237
23 26 29 32 34 36 39 45 49 51 53 53 52 51 53 55 56 57 56 53 54 55 46 38 35 39 31 9 340 294 255 248 242 241 247 240 241 235 274 264 251 259 235
7 13 16 24 32 32 32 43 50 52 52 50 50 51 53 53 53 54 52 50 54 56 53 47 42 40 31 17 4 328 265 251 243 239 245 255 258 106 293 273 267 261 249
359 1 7 19 27 27 27 40 48 50 49 47 49 50 49 48 48 48 46 48 53 54 59 54 44 37 30 21 13 351 323 286 256 235 229 107 321 30 260 260 264 265 256
350 350 359 12 15 15 24 39 45 48 47 48 49 48 47 46 43 43 42 43 47 48 46 48 43 36 26 20 18 8 3 349 317 266 244 103 52 319 275 269 274 320 323
352 349 351 0 5 9 18 39 43 42 45 48 47 46 43 39 38 40 39 38 36 41 39 36 35 28 25 19 13 13 13 351 352 357 353 43 44 15 326 272 47 61 260
350 348 344 344 357 13 13 25 37 35 43 48 44 42 46 45 39 39 40 39 37 37 34 29 24 19 17 17 12 15 17 1 10 36 38 36 30 165 110 80 86 187 190
349 343 339 340 350 359 359 4 15 17 30 42 40 41 45 53 55 49 46 45 38 35 31 25 18 13 17 15 7 5 16 17 32 52 69 84 67 74 75 94 87 73 64
343 340 338 335 334 339 344 348 350 350 20 43 50 51 55 58 64 67 51 48 52 32 16 13 9 10 14 10 4 11 19 18 18 22 53 57 64 70 72 70 65 62 70
342 340 339 333 332 336 338 344 329 321 3 42 49 51 56 61 64 79 96 79 53 42 34 25 14 40 33 19 34 38 35 27 18 47 59 55 54 54 54 55 58 54 52
Height
1509 1507 1506 1505 1506 1508 1510 1512 1514 1516 1519 1521 1523 1525 1528 1530 1532 1533 1535 1536 1539 1541 1543 1544 1546 1547 1549 1550 1552 1553 1554 1555 1556 1557 1558 1558 1558 1559 1558 1558 1559 1559 1558
1506 1504 1502 1501 1501 1501 1503 1505 1508 1510 1512 1515 1518 1521 1525 1527 1529 1531 1532 1534 1536 1538 1540 1541 1543 1544 1545 1546 1548 1549 1550 1551 1553 1555 1556 1556 1556 1554 1555 1556 1556 1557 1556
1505 1502 1499 1497 1496 1495 1496 1498 1501 1504 1506 1509 1513 1517 1520 1523 1525 1528 1530 1531 1533 1534 1536 1538 1539 1540 1542 1542 1543 1545 1546 1547 1548 1550 1552 1553 1552 1552 1553 1553 1554 1554 1555
1505 1501 1497 1494 1491 1490 1490 1491 1494 1497 1500 1502 1506 1511 1515 1519 1522 1525 1527 1528 1530 1531 1533 1534 1535 1537 1538 1539 1540 1540 1541 1543 1544 1545 1546 1548 1549 1550 1550 1550 1551 1551 1552
1504 1500 1496 1492 1489 1486 1485 1486 1488 1491 1494 1497 1500 1504 1509 1513 1518 1521 1524 1526 1527 1527 1529 1530 1531 1533 1534 1535 1536 1537 1537 1538 1539 1540 1541 1542 1543 1545 1546 1547 1548 1548 1549
1504 1500 1496 1492 1488 1485 1483 1483 1484 1486 1489 1492 1495 1498 1503 1507 1513 1518 1521 1523 1524 1524 1525 1527 1528 1529 1531 1532 1533 1533 1533 1534 1535 1536 1537 1538 1538 1539 1541 1542 1543 1544 1545
1504 1500 1496 1492 1489 1486 1484 1483 1483 1485 1487 1489 1492 1494 1498 1502 1508 1514 1518 1521 1522 1522 1524 1525 1526 1527 1528 1528 1529 1530 1530 1530 1531 1531 1532 1533 1534 1535 1536 1537 1538 1540 1541
1505 1501 1497 1493 1490 1488 1486 1485 1485 1485 1487 1489 1491 1493 1497 1501 1505 1511 1517 1520 1521 1522 1523 1523 1524 1525 1525 1526 1526 1527 1527 1527 1527 1527 1528 1529 1529 1530 1531 1532 1534 1535 1536
1505 1501 1498 1494 1492 1490 1489 1488 1488 1488 1489 1491 1493 1496 1499 1502 1505 1511 1516 1519 1520 1521 1522 1522 1523 1523 1523 1524 1524 1525 1525 1525 1524 1524 1524 1524 1524 1525 1526 1527 1529 1531 1531
1506 1502 1499 1496 1494 1493 1492 1492 1492 1493 1493 1494 1497 1500 1502 1505 1508 1512 1515 1517 1520 1520 1521 1522 1522 1522 1522 1522 1522 1523 1523 1522 1522 1521 1521 1521 1521 1521 1522 1523 1524 1525 1527
1508 1504 1501 1498 1496 1496 1495 1495 1496 1497 1498 1499 1501 1503 1505 1507 1510 1512 1514 1517 1518 1519 1520 1521 1522 1522 1522 1521 1521 1522 1521 1521 1520 1519 1518 1518 1518 1517 1518 1518 1519 1520 1522
1510 1507 1504 1501 1499 1499 1499 1499 1500 1500 1501 1502 1503 1505 1507 1509 1510 1512 1514 1516 1517 1518 1519 1520 1521 1521 1520 1520 1521 1521 1520 1519 1519 1518 1517 1516 1515 1515 1514 1514 1515 1515 1516
1514 1510 1507 1505 1503 1503 1503 1502 1502 1503 1503 1504 1505 1507 1508 1510 1511 1512 1514 1515 1516 1517 1518 1518 1519 1519 1519 1519 1520 1520 1519 1518 1518 1517 1516 1515 1514 1513 1512 1511 1511 1511 1512
1520 1517 1513 1511 1509 1508 1507 1506 1505 1504 1504 1505 1506 1507 1508 1509 1510 1511 1513 1513 1514 1516 1516 1517 1518 1518 1518 1518 1518 1518 1518 1517 1517 1516 1515 1514 1513 1512 1511 1509 1509 1508 1508
1526 1523 1520 1518 1515 1513 1511 1509 1508 1507 1506 1507 1507 1508 1508 1509 1509 1510 1511 1512 1513 1514 1514 1515 1515 1516 1516 1516 1516 1516 1516 1516 1515 1515 1514 1513 1512 1510 1509 1508 1507 1506 1505
1533 1530 1527 1524 1521 1519 1516 1514 1511 1510 1509 1508 1508 1508 1508 1509 1509 1509 1510 1510 1511 1511 1512 1512 1512 1513 1513 1512 1512 1512 1513 1513 1513 1513 1513 1512 1510 1509 1508 1506 1505 1505 1504
1538 1535 1533 1530 1527 1524 1521 1518 1516 1514 1512 1511 1510 1509 1509 1509 1509 1509 1509 1509 1509 1509 1509 1509 1509 1509 1509 1508 1508 1509 1509 1510 1511 1511 1511 1510 1509 1508 1508 1506 1504 1504 1502
1542 1540 1537 1534 1532 1529 1526 1523 1521 1519 1517 1515 1513 1512 1512 1511 1510 1510 1509 1509 1508 1507 1507 1506 1506 1505 1505 1505 1505 1505 1506 1507 1507 1508 1508 1508 1508 1507 1507 1507 1506 1505 1503
1545 1543 1540 1538 1535 1532 1530 1528 1526 1523 1521 1519 1517 1516 1515 1514 1513 1511 1510 1509 1508 1507 1506 1505 1504 1504 1503 1502 1502 1502 1502 1503 1503 1504 1504 1505 1506 1504 1504 1504 1504 1503 1502
1547 1545 1543 1541 1538 1535 1533 1532 1529 1527 1524 1522 1521 1519 1518 1516 1515 1513 1512 1511 1510 1508 1507 1506 1505 1503 1502 1501 1500 1499 1500 1500 1500 1500 1501 1501 1502 1501 1502 1502 1503 1502 1502
1549 1547 1545 1543 1540 1538 1536 1534 1532 1529 1527 1526 1524 1522 1521 1519 1517 1516 1514 1512 1511 1510 1508 1507 1505 1504 1503 1501 1499 1498 1497 1497 1497 1497 1498 1498 1498 1499 1499 1500 1500 1500 1500
1550 1548 1546 1545 1542 1540 1538 1536 1534 1532 1530 1528 1526 1524 1523 1521 1519 1517 1516 1514 1512 1511 1509 1508 1507 1505 1503 1501 1500 1498 1497 1496 1496 1495 1495 1495 1495 1496 1497 1497 1498 1498 1498
1550 1549 1547 1546 1544 1542 1540 1538 1536 1534 1532 1530 1528 1527 1525 1523 1521 1519 1517 1516 1514 1512 1511 1510 1508 1507 1505 1503 1500 1498 1497 1495 1495 1494 1493 1493 1494 1494 1495 1496 1496 1496 1497
1550 1549 1547 1546 1545 1543 1541 1539 1537 1535 1534 1532 1530 1529 1527 1525 1523 1521 1519 1518 1516 1514 1513 1511 1510 1508 1507 1504 1501 1499 1498 1496 1495 1494 1493 1493 1493 1494 1494 1495 1495 1496 1496
1550 1549 1547 1546 1545 1543 1542 1540 1538 1537 1536 1534 1532 1531 1529 1527 1525 1523 1522 1520 1519 1517 1516 1514 1512 1510 1508 1506 1503 1501 1499 1497 1496 1495 1494 1494 1494 1495 1495 1495 1495 1495 1496
1550 1548 1547 1546 1544 1543 1542 1540 1538 1537 1537 1536 1534 1532 1531 1529 1527 1526 1525 1523 1522 1520 1518 1517 1515 1513 1511 1508 1506 1504 1502 1500 1498 1498 1497 1496 1496 1496 1496 1496 1496 1496 1496